Volver al catálogo

UND ROADS 1

ActivoCienciaSSO
NORAD 64535·PAYLOAD·🇺🇸 United States

Lanzado Jun 23, 2025 desde Vandenberg Space Force Base

Loading…

Próximos Pases (próximas 24 horas)

TLE

ActualizadoSource: Space-Track

Época: Sep 14, 2026, 02:26 UTC

1 64535U 25135H   26257.10201737  .00005113  00000-0  21819-3 0  9996
2 64535  97.4752  11.6642 0003448 210.0534 150.0505 15.23349474 68397

Sigue UND ROADS 1 en tiempo real con AllMySat

Download on the App Store